Simultaneous Nadir Overpasses (SNOs) Predictions

Prediction of SNOs between GOES-16 and NOAA-19 Satellite Orbit:

Table of predicted SNOs for the next 14.0 days since TLE Epoch: 9/13/2019
Index Date Time (GOES-16) GOES-16 Lat,Lon NOAA-19 Lat,Lon Distance(km) Time Diff (sec)
1 09/14/2019 10:16:14 0.02, -75.20 0.26, -76.10 103.49 80
2 09/15/2019 10:01:55 0.02, -75.20 -0.42, -73.25 221.47 80
3 09/17/2019 22:23:10 -0.02, -75.20 -0.73, -78.28 352.51 80
4 09/18/2019 22:11:32 -0.02, -75.20 -0.07, -75.44 27.38 80
5 09/19/2019 22:02:33 -0.02, -75.21 0.59, -72.60 297.80 80
6 09/22/2019 10:23:30 0.02, -75.23 0.55, -77.56 264.84 80
7 09/23/2019 10:09:12 0.02, -75.24 -0.13, -74.71 60.59 80
8 09/24/2019 09:57:32 0.02, -75.25 -0.74, -71.86 386.04 80
9 09/26/2019 22:18:48 -0.03, -75.26 -0.39, -76.90 186.70 80




NCC Satellite Simultaneous Nadir Overpasses (SNOs) Prediction Service
